Regional Weather Roundup
Issued by NWS

Home | Current Version | Previous Version | Text Only | Print | Product List | Glossary Off
Versions: 1 2 3 4 5 6 7 8 9 10 11 12 13 14 15 16 17 18 19 20 21 22 23 24 25 26 27

000
ASUS45 KSLC 290610
RWRUT

UTAH REGIONAL WEATHER ROUNDUP
NATIONAL WEATHER SERVICE SALT LAKE CITY UT
1200 AM MDT SUN MAY 29 2016

UTZ001>011-023>025-290700-

NORTHERN UTAH

CITY           SKY/WX    TMP DP  RH WIND       PRES   REMARKS
BRIGHAM CITY     N/A     59  41  52 W3        30.08S
HILL AFB       PTCLDY    57  35  43 E13       30.09S
LOGAN          CLEAR     47  41  80 N5        30.09S
OGDEN          PTCLDY    57  38  48 S9        30.07S
PROVO AIRPORT  PTCLDY    59  45  58 SE7       30.09F
SALT LAKE CITY MOCLDY    62  38  40 SE8       30.06F
VERNAL         CLOUDY    54  39  57 W3        30.13S
WENDOVER       CLOUDY    64  43  45 SW7       30.06S
HEBER CITY     MOCLDY    50  39  66 CALM      30.13S
WEST JORDAN    CLOUDY    59  41  51 SW6       30.09F

$$

UTZ012>022-026-027-290700-

SOUTHERN/CENTRAL UTAH

CITY           SKY/WX    TMP DP  RH WIND       PRES   REMARKS
BLANDING       PTCLDY    56  30  37 N12       30.18S
BRYCE CANYON   MOCLDY    45  34  65 NE7       30.22S
CEDAR CITY     MOCLDY    55  36  48 S6        30.08R
DELTA          PTCLDY    57  39  51 N7        30.07S
HANKSVILLE     PTCLDY    61  36  39 NE8       30.08S
MILFORD        MOCLDY    61  36  39 N9        30.05S
MOAB/CYNLANDS  PTCLDY    61  31  32 N6        30.05R
PRICE          MOCLDY    56  36  47 N9        30.14F
ST GEORGE      MOCLDY    77  34  20 SE5       29.92S
KANAB          MOCLDY    64  34  32 NW8       30.07R

$$

REGIONAL REPORTS     COLORADO/ARIZONA

CITY           SKY/WX    TMP DP  RH WIND       PRES   REMARKS
CRAIG, CO      CLEAR     41  36  82 SW3       30.20S
GRAND JUNCTION CLEAR     57  34  41 E7        30.09F
RIFLE          CLOUDY    50  35  56 SE7       30.18R
MONTROSE       CLOUDY    55  35  47 SE7       30.18R
CORTEZ         CLEAR     50  32  50 CALM      30.14R
PAGE, AZ       PTCLDY    70  30  22 W3        29.98S
GRAND CANYON   CLEAR     43  26  51 CALM      30.15S
KINGMAN        CLEAR     67  27  22 MISG      29.96R
FLAGSTAFF      CLEAR     42  21  43 CALM      30.19R

$$

REGIONAL REPORTS    NEVADA/IDAHO/WYOMING

CITY           SKY/WX    TMP DP  RH WIND       PRES   REMARKS
LAS VEGAS, NV  CLEAR     80  25  13 SW5       29.81R
ELY            MOCLDY    51  41  68 N12       30.16R
ELKO           CLOUDY    59  42  53 S9        30.08R
POCATELLO, ID  CLEAR     45  35  68 E3        30.10S
BURLEY         CLEAR     49  38  65 SE5       30.07R
EVANSTON, WY   CLOUDY    50  28  42 SE3       30.20S
ROCK SPRINGS   CLEAR     48  37  65 W10       30.19R
KEMMERER         N/A     43  30  61 NW5       30.21S

$$




USA.gov is the U.S. government's official web portal to all federal, state and local government web resources and services.